| time (UTC) | temp C | wind direction | speed KPH | gust KPH | rain 1hr cm | rain 24hr cm | rain mn cm | humidity % | barometer mb |
| 20260505041028 | 21 | 236 | 0.0 | 0.0 | 0.00 | 3.51 | 0.41 | 56 | 1018.4 |
| 20260505040024 | 21 | 229 | 0.0 | 0.0 | 0.00 | 3.51 | 0.41 | 56 | 1018.3 |
| 20260505035026 | 21 | 245 | 0.0 | 0.0 | 0.00 | 3.51 | 0.41 | 57 | 1018.2 |
| 20260505034022 | 20 | 254 | 0.0 | 0.0 | 0.00 | 3.51 | 0.41 | 58 | 1018.4 |
| 20260505033033 | 20 | 269 | 0.0 | 0.0 | 0.00 | 3.51 | 0.41 | 59 | 1018.3 |
| 20260505032027 | 20 | 269 | 0.0 | 0.0 | 0.00 | 3.51 | 0.41 | 58 | 1018.4 |
| 20260505031024 | 20 | 273 | 0.0 | 0.0 | 0.00 | 3.51 | 0.41 | 58 | 1018.6 |
| 20260505030020 | 20 | 242 | 0.0 | 0.0 | 0.00 | 3.51 | 0.41 | 60 | 1018.7 |
| 20260505025037 | 20 | 241 | 0.0 | 0.0 | 0.00 | 3.51 | 0.41 | 61 | 1018.9 |
| 20260505024028 | 20 | 274 | 0.0 | 0.0 | 0.00 | 3.51 | 0.41 | 62 | 1019.1 |
| 20260505023020 | 20 | 273 | 0.0 | 0.0 | 0.00 | 3.51 | 0.41 | 62 | 1019.2 |
| 20260505022037 | 20 | 273 | 0.0 | 0.0 | 0.00 | 3.51 | 0.41 | 67 | 1019.3 |
| 20260505021033 | 19 | 273 | 0.0 | 0.0 | 0.00 | 3.51 | 0.41 | 69 | 1019.4 |
| 20260505020025 | 20 | 271 | 0.0 | 0.0 | 0.00 | 3.51 | 0.41 | 70 | 1019.5 |
| 20260505015023 | 19 | 269 | 0.0 | 0.0 | 0.00 | 3.51 | 0.41 | 73 | 1019.5 |
| 20260505014020 | 19 | 270 | 0.0 | 0.0 | 0.00 | 3.51 | 0.41 | 72 | 1019.7 |
| 20260505013036 | 19 | 270 | 0.0 | 0.0 | 0.00 | 3.51 | 0.41 | 68 | 1019.9 |
| 20260505012030 | 19 | 274 | 0.0 | 0.0 | 0.00 | 3.51 | 0.41 | 67 | 1020.0 |
| 20260505011028 | 19 | 232 | 0.0 | 0.0 | 0.00 | 3.51 | 0.41 | 66 | 1020.2 |
| 20260505010049 | 19 | 237 | 0.0 | 0.0 | 0.00 | 3.51 | 0.41 | 65 | 1020.1 |
| 20260505005026 | 18 | 238 | 0.0 | 0.0 | 0.00 | 3.51 | 0.41 | 64 | 1020.3 |
| 20260505004019 | 18 | 242 | 0.0 | 0.0 | 0.00 | 3.51 | 0.41 | 66 | 1020.3 |
| 20260505003037 | 18 | 248 | 0.0 | 0.0 | 0.00 | 3.51 | 0.41 | 68 | 1020.4 |
| 20260505002030 | 18 | 233 | 0.0 | 0.0 | 0.00 | 3.51 | 0.41 | 71 | 1020.5 |
| 20260505001028 | 18 | 259 | 0.0 | 0.0 | 0.00 | 3.51 | 0.41 | 72 | 1020.6 |
| 20260505000021 | 18 | 224 | 0.0 | 0.0 | 0.10 | 3.51 | 0.41 | 73 | 1020.7 |
| 20260504235033 | 18 | 207 | 0.0 | 0.0 | 0.10 | 3.51 | 0.41 | 76 | 1020.6 |
| 20260504234022 | 18 | 205 | 0.0 | 0.0 | 0.10 | 3.51 | 0.41 | 77 | 1020.3 |
| 20260504233020 | 17 | 214 | 0.0 | 0.0 | 0.10 | 3.51 | 0.41 | 79 | 1020.5 |
| 20260504232037 | 17 | 212 | 0.0 | 0.0 | 0.10 | 3.51 | 0.41 | 80 | 1020.5 |
| 20260504231035 | 17 | 213 | 0.0 | 0.0 | 0.10 | 3.51 | 0.41 | 82 | 1020.7 |
| 20260504230056 | 17 | 360 | 0.0 | 0.0 | 0.00 | 3.40 | 0.38 | 85 | 1020.7 |
| 20260504225030 | 17 | 203 | 0.0 | 0.0 | 0.00 | 3.40 | 0.38 | 87 | 1020.5 |
| 20260504224045 | 17 | 209 | 0.0 | 0.0 | 0.00 | 3.40 | 0.38 | 93 | 1020.3 |
| 20260504223039 | 17 | 207 | 0.0 | 0.0 | 0.00 | 3.40 | 0.38 | 94 | 1020.1 |
| 20260504222019 | 17 | 219 | 0.0 | 0.0 | 0.00 | 3.40 | 0.38 | 96 | 1020.0 |
| 20260504221033 | 17 | 215 | 0.0 | 0.0 | 0.00 | 3.40 | 0.38 | 96 | 1019.9 |
| 20260504220030 | 17 | 222 | 0.0 | 0.0 | 0.00 | 3.40 | 0.38 | 96 | 1019.7 |
| 20260504215021 | 17 | 224 | 0.0 | 0.0 | 0.00 | 3.40 | 0.38 | 96 | 1019.5 |
| 20260504214039 | 17 | 223 | 0.0 | 0.0 | 0.00 | 3.40 | 0.38 | 96 | 1019.3 |
| 20260504213032 | 17 | 226 | 0.0 | 0.0 | 0.00 | 3.40 | 0.38 | 96 | 1019.1 |
| 20260504212026 | 17 | 226 | 0.0 | 0.0 | 0.00 | 3.40 | 0.38 | 96 | 1018.9 |
| 20260504211020 | 17 | 228 | 0.0 | 0.0 | 0.00 | 3.40 | 0.38 | 96 | 1018.7 |
| 20260504210036 | 17 | 231 | 0.0 | 0.0 | 0.00 | 3.40 | 0.38 | 96 | 1018.4 |
| 20260504205030 | 17 | 232 | 0.0 | 0.0 | 0.00 | 3.40 | 0.38 | 96 | 1018.7 |
| 20260504204023 | 17 | 236 | 0.0 | 0.0 | 0.00 | 3.40 | 0.38 | 96 | 1018.5 |
| 20260504203018 | 17 | 242 | 0.0 | 0.0 | 0.00 | 3.40 | 0.38 | 96 | 1018.3 |
| 20260504202033 | 17 | 253 | 0.0 | 0.0 | 0.00 | 3.40 | 0.38 | 96 | 1018.1 |
| 20260504201026 | 17 | 255 | 0.0 | 0.0 | 0.00 | 3.40 | 0.38 | 96 | 1017.9 |
| 20260504200019 | 17 | 255 | 0.0 | 0.0 | 0.00 | 3.40 | 0.38 | 96 | 1017.9 |
| 20260504195037 | 17 | 256 | 0.0 | 0.0 | 0.00 | 3.40 | 0.38 | 96 | 1017.8 |
| 20260504194054 | 17 | 267 | 0.0 | 0.0 | 0.00 | 3.40 | 0.38 | 96 | 1017.7 |
| 20260504193050 | 17 | 260 | 0.0 | 0.0 | 0.00 | 3.40 | 0.38 | 96 | 1017.5 |
| 20260504192048 | 17 | 267 | 0.0 | 0.0 | 0.00 | 3.40 | 0.38 | 96 | 1017.3 |
| 20260504191020 | 17 | 259 | 0.0 | 0.0 | 0.00 | 3.40 | 0.38 | 96 | 1017.3 |
| 20260504190037 | 17 | 268 | 0.0 | 0.0 | 0.00 | 3.40 | 0.38 | 96 | 1017.2 |
| 20260504185055 | 17 | 261 | 0.0 | 0.0 | 0.00 | 3.40 | 0.38 | 96 | 1017.1 |
| 20260504184027 | 17 | 262 | 0.0 | 0.0 | 0.00 | 3.40 | 0.38 | 96 | 1017.1 |
| 20260504183023 | 17 | 263 | 0.0 | 0.0 | 0.00 | 3.40 | 0.38 | 96 | 1017.1 |
| 20260504182039 | 17 | 265 | 0.0 | 0.0 | 0.00 | 3.40 | 0.38 | 96 | 1016.9 |
| 20260504181030 | 17 | 265 | 0.0 | 0.0 | 0.00 | 3.40 | 0.38 | 96 | 1016.7 |
| 20260504180024 | 17 | 265 | 0.0 | 0.0 | 0.00 | 3.40 | 0.38 | 96 | 1016.9 |
| 20260504175039 | 17 | 265 | 0.0 | 0.0 | 0.00 | 3.40 | 0.38 | 96 | 1017.0 |
| 20260504174034 | 17 | 265 | 0.0 | 0.0 | 0.10 | 3.40 | 0.38 | 96 | 1017.1 |
| 20260504173027 | 17 | 265 | 0.0 | 0.0 | 0.30 | 3.40 | 0.38 | 96 | 1016.8 |
| 20260504172043 | 17 | 265 | 0.0 | 0.0 | 0.79 | 3.40 | 0.38 | 96 | 1016.9 |
| 20260504171035 | 17 | 265 | 0.0 | 0.0 | 1.19 | 3.40 | 0.38 | 96 | 1017.0 |
| 20260504151020 | 18 | 263 | 0.0 | 0.0 | 0.00 | 1.50 | 0.00 | 95 | 1016.5 |
| 20260504141035 | 18 | 275 | 0.0 | 0.0 | 0.51 | 1.50 | 0.30 | 95 | 1016.4 |
| 20260504081027 | 21 | 63 | 0.0 | 0.0 | 0.00 | 0.00 | 0.00 | 88 | 1016.7 |